DELTA 1 DEB, 7073

Orbit data source: Space-Track

DELTA 1 DEB, 7073 is space debris in SSO originally from a launch on Tue, 06 Nov 1973 UTC launched from the Air Force Western Test Range (AFWTR). Debris objects in space refer to the collection of defunct objects orbiting the Earth. Examples of debris include non-operational satellites, rocket bodies, and fragments generated from explosions, collisions, or faulty payload assembly.

Loading next visibility...
Identifier
7073, 1973-086BR
Orbit
SSO
Country
Flag of USUS
Related business
Manufacturer
Unknown
Mission
Spacecraft
Bus & Motor
Unknown
Mass
Unknown
Launch date (UTC)
1973-11-06 (53 years ago)
Launch vehicle
Unknown
Launch site
Air Force Western Test Range (AFWTR)
Object type
Payload
Rocket body
Debris
Shape & HBR
Unknown shape, 0.2 m
Radar Cross Section
Medium (>0.1 m² and <1 m²)

Expand to show TLE details & history
Last TLE update: 1 day ago

TLE from 1 day ago
0 DELTA 1 DEB
1 07073U 73086BR  26206.37044688 -.00000064  00000-0 -14963-3 0  9995
2 07073 102.5214 172.7840 0064271 310.1186 206.6990 12.28475854363564
Epoch: 2026-07-25T08:53Z
TLE epoch observation values (Epoch: 2026-07-25T08:53:26.610Z)
Latitude
22.9386°
Longitude
-78.29353°
Altitude
1,603.887 km
Speed
7.049 km/s
True Right ascension
23h 52m 36s
True Declination
22° 49' 43"
Sunlit
Object was in daylight at epoch
Visualization orbit readout
Latitude
Unknown
Longitude
Unknown
Altitude
Unknown
Speed
Unknown
Apparent Right ascension
Unknown
Apparent Declination
Unknown
Sunlit
N/A
Visualization observer readout
Local Sidereal Time
00:10:01
Azimuth
Unknown
Elevation
Unknown
Doppler factor
Unknown
Orbital elements
Apogee altitude
1,604.435 km
Perigee altitude
1,502.481 km
Semi-major axis
7,931.595 km
Eccentricity
0.00643
Inclination
102.5214°
RAAN
172.784°
Arg. of periapsis
310.1186°
True anomaly
206.37045°
Mean anomaly
206.699°
Eccentric anomaly
206.53449°
Mean motion
3.07257 °/min
Orbital period
117.17 mins
BSTAR
-0.00014963
Loading maneuver chart data...
Computing Atmospheric mass density...
Loading historical data...
Loading historical data...
Loading historical data...
Loading historical data...
Loading historical data...
Loading historical data...
Loading historical data...

Documentation

Showing up to 5 results
|